Change the Weather History Date:

Wednesday, January 23, 2013

  Actual Average Record
Temperature  
Mean Temperature 86 °F -  
Max Temperature 92 °F 85 °F 93 °F (2009)
Min Temperature 80 °F 78 °F 73 °F (2009)
Cooling Degree Days 21    
Growing Degree Days 36 (Base 50)    
Moisture  
Dew Point 76 °F    
Average Humidity 75    
Maximum Humidity 89    
Minimum Humidity 48    
Precipitation  
Precipitation 0.00 in 0.08 in - ()
Sea Level Pressure  
Sea Level Pressure 29.88 in    
Wind  
Wind Speed 9 mph ()    
Max Wind Speed 21 mph    
Max Gust Speed -    
Visibility 10.6 miles    
Events      
Averages and records for this station are not official NWS values.
T = Trace of Precipitation, MM = Missing Value Source: Averaged Metar Reports

Daily Weather History Graph

Daily Weather History Graph

Search for Another Location

Airport or City:

Trip Planner

Search our weather history database for the weather conditions in past years. The results will help you decide how hot, cold, wet, or windy it might be!

Date:

Astronomy

Jan. 23, 2013 Rise Set
Actual Time 6:22 AM EAT 6:47 PM EAT
Civil Twilight 6:00 AM EAT 7:09 PM EAT
Nautical Twilight 5:34 AM EAT 7:35 PM EAT
Astronomical Twilight 5:08 AM EAT 8:01 PM EAT
Moon 3:50 PM EAT (1/23) 3:06 AM EAT (1/23)
Length of Visible Light 13h 09m
Length of Day
12h 24m
Waxing Gibbous, 87% of the Moon is Illuminated
Jan 23
Waxing Gibbous
Jan 27
Full
Feb 3
Last Quarter
Feb 10
New
Feb 17
First Quarter

Hourly Weather History & Observations

Time (EAT) Temp. Heat Index Dew Point Humidity Pressure Visibility Wind Dir Wind Speed Gust Speed Precip Events Conditions
12:00 AM 80 °F - 77 °F 87% 29.89 in 19 mi NE 8.1 mph - -   Scattered Clouds
12:00 AM 80.6 °F 87.1 °F 77.0 °F 89% 29.89 in 6.2 mi NE 8.1 mph - N/A   Partly Cloudy
3:00 AM 80.6 °F 87.1 °F 77.0 °F 89% 29.86 in 6.2 mi ENE 6.9 mph - N/A   Mostly Cloudy
4:00 AM 80.6 °F 87.1 °F 77.0 °F 89% 29.86 in 6.2 mi NE 9.2 mph - N/A   Mostly Cloudy
5:00 AM 80.6 °F 86.2 °F 75.2 °F 84% 29.86 in 6.2 mi NE 9.2 mph - N/A   Mostly Cloudy
6:00 AM 82 °F - 76 °F 76% 29.89 in 16 mi NNE 11.5 mph - -   Mostly Cloudy
6:00 AM 82.4 °F 89.5 °F 75.2 °F 79% 29.89 in 6.2 mi NNE 11.5 mph - N/A   Mostly Cloudy
8:00 AM 84.2 °F 92.3 °F 75.2 °F 74% 29.92 in 6.2 mi NNE 20.7 mph - N/A   Mostly Cloudy
9:00 AM 85 °F - 75 °F 64% 29.93 in 16 mi NNE 11.5 mph - -   Mostly Cloudy
9:00 AM 86.0 °F 95.1 °F 75.2 °F 70% 29.92 in 6.2 mi NNE 11.5 mph - N/A   Scattered Clouds
10:00 AM 86.0 °F 93.4 °F 73.4 °F 66% 29.92 in 6.2 mi NNW 9.2 mph - N/A   Mostly Cloudy
12:00 PM 91 °F - 74 °F 48% 29.89 in 19 mi NE 15.0 mph - -   Partly Cloudy
3:00 PM 89 °F - 76 °F 57% 29.83 in 19 mi ENE 11.5 mph - -   Partly Cloudy
3:00 PM 89.6 °F 99.8 °F 75.2 °F 62% 29.83 in 6.2 mi ENE 11.5 mph - N/A   Scattered Clouds
6:00 PM 86 °F - 74 °F 61% 29.80 in 19 mi NE 16.1 mph - -   Scattered Clouds
9:00 PM 82 °F - 76 °F 78% 29.86 in 19 mi NNE 12.7 mph - -   Scattered Clouds
9:00 PM 82.4 °F 90.9 °F 77.0 °F 84% 29.86 in 6.2 mi NNE 12.7 mph - N/A   Partly Cloudy
10:00 PM 82.4 °F 90.9 °F 77.0 °F 84% 29.86 in 6.2 mi NE 9.2 mph - N/A   Partly Cloudy
11:00 PM 80.6 °F 87.1 °F 77.0 °F 89% 29.89 in 6.2 mi ENE 5.8 mph - N/A   Partly Cloudy